EZY18CE EDDB-EGGW

Flight info

Callsign EZY18CE
Flight time 1h 30m
Altitude 36000
Route SUKIP3Q/06R SUKIP Y206 BUREL P203 HLZ L980 ROBEG DCT AMSAN DCT RKN DCT NIGUG DCT NOGRO M40 RINIS
Aircraft A20N/M-SDE2E3FGHIJ1RWXYZ/LB1G1

Departure

Time 2026-05-06 09:38
Airport Berlin Brandenburg Airport (EDDB)

Arrival

Time 2026-05-06 11:08
Airport London Luton Airport (EGGW)
Time Latitude Longitude Altitude Speed Heading
2026-05-06 09:07 52.36138 13.50767 152 ft 0 kts 69°
2026-05-06 09:26 52.36138 13.50763 152 ft 3 kts 69°
2026-05-06 09:26 52.36128 13.50723 152 ft 4 kts 66°
2026-05-06 09:26 52.36116 13.50684 152 ft 4 kts 59°
2026-05-06 09:26 52.36101 13.50649 152 ft 4 kts 36°
2026-05-06 09:27 52.36083 13.50638 152 ft 1 kts 339°
2026-05-06 09:30 52.36107 13.50623 152 ft 9 kts 339°
2026-05-06 09:30 52.36167 13.50585 152 ft 9 kts 339°
2026-05-06 09:31 52.36222 13.50551 152 ft 8 kts 339°
2026-05-06 09:31 52.36276 13.50482 152 ft 13 kts 303°
2026-05-06 09:31 52.36340 13.50389 152 ft 12 kts 336°
2026-05-06 09:31 52.36419 13.50338 152 ft 20 kts 339°
2026-05-06 09:32 52.36523 13.50274 152 ft 17 kts 340°
2026-05-06 09:32 52.36630 13.50211 152 ft 15 kts 339°
2026-05-06 09:32 52.36715 13.50141 153 ft 12 kts 304°
2026-05-06 09:32 52.36756 13.50052 154 ft 7 kts 333°
2026-05-06 09:33 52.36782 13.50010 155 ft 11 kts 284°
2026-05-06 09:33 52.36752 13.49848 155 ft 16 kts 249°
2026-05-06 09:33 52.36713 13.49679 154 ft 16 kts 249°
2026-05-06 09:33 52.36671 13.49502 156 ft 18 kts 249°
2026-05-06 09:34 52.36642 13.49379 157 ft 17 kts 249°
2026-05-06 09:34 52.36589 13.49143 158 ft 16 kts 250°
2026-05-06 09:34 52.36552 13.48980 157 ft 15 kts 249°
2026-05-06 09:34 52.36515 13.48819 156 ft 15 kts 250°
2026-05-06 09:35 52.36480 13.48669 155 ft 14 kts 249°
2026-05-06 09:35 52.36443 13.48513 153 ft 15 kts 249°
2026-05-06 09:35 52.36471 13.48408 152 ft 10 kts 330°
2026-05-06 09:35 52.36521 13.48372 153 ft 6 kts 337°
2026-05-06 09:36 52.36546 13.48354 154 ft 4 kts 336°
2026-05-06 09:36 52.36602 13.48318 155 ft 10 kts 339°
2026-05-06 09:36 52.36648 13.48293 156 ft 11 kts 347°
2026-05-06 09:36 52.36715 13.48329 158 ft 10 kts 40°
2026-05-06 09:37 52.36757 13.48452 159 ft 10 kts 68°
2026-05-06 09:37 52.36775 13.48527 159 ft 11 kts 68°
2026-05-06 09:37 52.36907 13.49081 156 ft 83 kts 69°
2026-05-06 09:37 52.37186 13.50265 162 ft 138 kts 69°
2026-05-06 09:38 52.37557 13.51877 503 ft 152 kts 66°
2026-05-06 09:38 52.37819 13.52991 904 ft 159 kts 65°
2026-05-06 09:38 52.38185 13.54696 1659 ft 159 kts 71°
2026-05-06 09:38 52.38491 13.56456 2323 ft 168 kts 71°
2026-05-06 09:39 52.38903 13.58372 2751 ft 189 kts 67°
2026-05-06 09:39 52.39471 13.60512 3085 ft 216 kts 62°
2026-05-06 09:39 52.40416 13.62547 3554 ft 237 kts 37°
2026-05-06 09:39 52.41889 13.63840 4041 ft 256 kts 17°
2026-05-06 09:40 52.43607 13.64829 4798 ft 264 kts 17°
2026-05-06 09:40 52.45353 13.65835 5710 ft 268 kts 17°
2026-05-06 09:40 52.48945 13.67950 7382 ft 281 kts 18°
2026-05-06 09:41 52.50817 13.68966 8207 ft 285 kts
2026-05-06 09:41 52.52785 13.68873 8997 ft 286 kts 341°
2026-05-06 09:41 52.54529 13.67377 9829 ft 284 kts 315°
2026-05-06 09:41 52.55792 13.64817 10372 ft 298 kts 301°
2026-05-06 09:42 52.56926 13.61795 10696 ft 321 kts 298°
2026-05-06 09:42 52.58069 13.58596 11281 ft 332 kts 295°
2026-05-06 09:42 52.58798 13.55014 12144 ft 330 kts 276°
2026-05-06 09:42 52.58733 13.51256 13032 ft 331 kts 257°
2026-05-06 09:43 52.57896 13.47735 13871 ft 333 kts 243°
2026-05-06 09:43 52.56829 13.44338 14678 ft 336 kts 243°
2026-05-06 09:43 52.55746 13.40906 15524 ft 339 kts 243°
2026-05-06 09:43 52.54649 13.37432 16265 ft 348 kts 243°
2026-05-06 09:44 52.53540 13.33902 17074 ft 346 kts 243°
2026-05-06 09:44 52.52432 13.30367 17751 ft 350 kts 243°
2026-05-06 09:44 52.51312 13.26791 18360 ft 353 kts 243°
2026-05-06 09:44 52.50180 13.23184 18908 ft 357 kts 243°
2026-05-06 09:45 52.49035 13.19544 19471 ft 361 kts 243°
2026-05-06 09:45 52.47962 13.16141 19983 ft 364 kts 243°
2026-05-06 09:45 52.46793 13.12436 20529 ft 368 kts 242°
2026-05-06 09:45 52.45612 13.08696 21076 ft 371 kts 242°
2026-05-06 09:46 52.44416 13.04920 21614 ft 375 kts 242°
2026-05-06 09:46 52.43204 13.01101 22157 ft 378 kts 242°
2026-05-06 09:46 52.41984 12.97259 22704 ft 382 kts 242°
2026-05-06 09:46 52.40752 12.93387 23242 ft 386 kts 242°
2026-05-06 09:47 52.39502 12.89466 23700 ft 389 kts 242°
2026-05-06 09:47 52.38243 12.85519 24144 ft 392 kts 242°
2026-05-06 09:47 52.36975 12.81556 24563 ft 395 kts 242°
2026-05-06 09:47 52.35694 12.77556 24972 ft 399 kts 242°
2026-05-06 09:48 52.34399 12.73523 25398 ft 402 kts 242°
2026-05-06 09:48 52.33107 12.69501 25765 ft 406 kts 242°
2026-05-06 09:48 52.31790 12.65410 26153 ft 409 kts 242°
2026-05-06 09:48 52.30456 12.61276 26524 ft 412 kts 242°
2026-05-06 09:49 52.29110 12.57109 26887 ft 416 kts 242°
2026-05-06 09:49 52.27767 12.52905 27243 ft 419 kts 244°
2026-05-06 09:49 52.26834 12.48377 27565 ft 424 kts 258°
2026-05-06 09:49 52.26588 12.43614 27881 ft 429 kts 271°
2026-05-06 09:50 52.27036 12.38744 28200 ft 433 kts 282°
2026-05-06 09:50 52.27735 12.33912 28514 ft 437 kts 282°
2026-05-06 09:50 52.28430 12.29073 28821 ft 440 kts 282°
2026-05-06 09:50 52.29123 12.24186 29109 ft 443 kts 282°
2026-05-06 09:51 52.29812 12.19269 29368 ft 447 kts 282°
2026-05-06 09:51 52.30486 12.14426 29660 ft 450 kts 282°
2026-05-06 09:51 52.31178 12.09422 29957 ft 452 kts 282°
2026-05-06 09:51 52.31869 12.04410 30269 ft 453 kts 282°
2026-05-06 09:52 52.32560 11.99379 30583 ft 454 kts 281°
2026-05-06 09:52 52.33253 11.94321 30872 ft 456 kts 281°
2026-05-06 09:52 52.33943 11.89260 31220 ft 456 kts 280°
2026-05-06 09:52 52.34437 11.84160 31602 ft 453 kts 274°
2026-05-06 09:53 52.34603 11.79028 31988 ft 451 kts 270°
2026-05-06 09:53 52.34702 11.73915 32372 ft 450 kts 270°
2026-05-06 09:53 52.34812 11.68807 32749 ft 448 kts 269°
2026-05-06 09:53 52.34921 11.63724 33116 ft 447 kts 269°
2026-05-06 09:54 52.35027 11.58644 33482 ft 446 kts 269°
2026-05-06 09:54 52.35129 11.53583 33831 ft 445 kts 269°
2026-05-06 09:54 52.35228 11.48534 34113 ft 444 kts 269°
2026-05-06 09:54 52.35323 11.43505 34377 ft 443 kts 269°
2026-05-06 09:55 52.35416 11.38456 34636 ft 442 kts 269°
2026-05-06 09:55 52.35507 11.33432 34884 ft 442 kts 269°
2026-05-06 09:55 52.35596 11.28410 35128 ft 441 kts 269°
2026-05-06 09:55 52.35683 11.23393 35376 ft 441 kts 269°
2026-05-06 09:56 52.35767 11.18402 35604 ft 440 kts 269°
2026-05-06 09:56 52.35849 11.13395 35787 ft 440 kts 269°
2026-05-06 09:56 52.36005 11.03469 35796 ft 438 kts 269°
2026-05-06 09:57 52.36154 10.93492 35800 ft 439 kts 269°
2026-05-06 09:57 52.36271 10.83509 35802 ft 438 kts 266°
2026-05-06 09:58 52.35654 10.73666 35802 ft 435 kts 256°
2026-05-06 09:58 52.34459 10.63933 35805 ft 435 kts 256°
2026-05-06 09:59 52.33289 10.54229 35806 ft 435 kts 256°
2026-05-06 09:59 52.32110 10.44554 35807 ft 436 kts 256°
2026-05-06 10:00 52.30914 10.34839 35807 ft 436 kts 256°
2026-05-06 10:00 52.29711 10.25134 35809 ft 436 kts 256°
2026-05-06 10:01 52.28499 10.15433 35809 ft 436 kts 256°
2026-05-06 10:01 52.27279 10.05737 35812 ft 436 kts 256°
2026-05-06 10:02 52.26061 9.96118 35819 ft 436 kts 256°
2026-05-06 10:02 52.25037 9.86355 35811 ft 438 kts 263°
2026-05-06 10:03 52.24766 9.76417 35818 ft 438 kts 265°
2026-05-06 10:03 52.24506 9.66482 35818 ft 439 kts 264°
2026-05-06 10:04 52.24231 9.56523 35810 ft 439 kts 264°
2026-05-06 10:04 52.23949 9.46643 35796 ft 438 kts 264°
2026-05-06 10:05 52.23657 9.36702 35806 ft 439 kts 264°
2026-05-06 10:05 52.23359 9.26777 35805 ft 438 kts 264°
2026-05-06 10:06 52.23056 9.16841 35802 ft 438 kts 264°
2026-05-06 10:06 52.22760 9.07079 35792 ft 436 kts 264°
2026-05-06 10:07 52.22450 8.97206 35787 ft 436 kts 264°
2026-05-06 10:07 52.22131 8.87345 35795 ft 435 kts 264°
2026-05-06 10:08 52.21804 8.77500 35782 ft 435 kts 264°
2026-05-06 10:08 52.21469 8.67697 35776 ft 435 kts 264°
2026-05-06 10:09 52.21126 8.57858 35779 ft 435 kts 264°
2026-05-06 10:09 52.20773 8.48002 35787 ft 435 kts 264°
2026-05-06 10:10 52.20413 8.38155 35783 ft 435 kts 264°
2026-05-06 10:10 52.20044 8.28307 35793 ft 435 kts 264°
2026-05-06 10:11 52.19666 8.18432 35807 ft 438 kts 264°
2026-05-06 10:11 52.19281 8.08564 35814 ft 437 kts 264°
2026-05-06 10:12 52.18886 7.98693 35820 ft 437 kts 264°
2026-05-06 10:12 52.18483 7.88802 35824 ft 437 kts 264°
2026-05-06 10:13 52.18081 7.79142 35825 ft 437 kts 264°
2026-05-06 10:13 52.17655 7.69126 35833 ft 438 kts 264°
2026-05-06 10:14 52.17227 7.59241 35832 ft 438 kts 264°
2026-05-06 10:14 52.16790 7.49341 35834 ft 438 kts 263°
2026-05-06 10:15 52.16344 7.39436 35837 ft 438 kts 263°
2026-05-06 10:15 52.15892 7.29571 35824 ft 436 kts 263°
2026-05-06 10:16 52.15432 7.19711 35828 ft 437 kts 263°
2026-05-06 10:16 52.14967 7.09873 35832 ft 436 kts 263°
2026-05-06 10:17 52.14497 7.00128 35841 ft 436 kts 263°
2026-05-06 10:17 52.14015 6.90289 35838 ft 435 kts 263°
2026-05-06 10:18 52.13527 6.80490 35829 ft 434 kts 263°
2026-05-06 10:18 52.13021 6.70705 35832 ft 433 kts 263°
2026-05-06 10:19 52.12483 6.61024 35835 ft 432 kts 262°
2026-05-06 10:19 52.11938 6.51305 35830 ft 431 kts 262°
2026-05-06 10:20 52.11388 6.41612 35819 ft 430 kts 262°
2026-05-06 10:20 52.10832 6.31922 35839 ft 431 kts 262°
2026-05-06 10:21 52.10263 6.22185 35844 ft 432 kts 262°
2026-05-06 10:21 52.09727 6.13109 35846 ft 431 kts 262°
2026-05-06 10:22 52.09244 6.05035 35848 ft 431 kts 262°
2026-05-06 10:22 52.08655 5.95323 35850 ft 432 kts 262°
2026-05-06 10:23 52.08057 5.85596 35851 ft 432 kts 262°
2026-05-06 10:23 52.07451 5.75865 35857 ft 433 kts 262°
2026-05-06 10:24 52.06836 5.66133 35862 ft 434 kts 262°
2026-05-06 10:24 52.06212 5.56373 35864 ft 434 kts 262°
2026-05-06 10:25 52.05579 5.46625 35860 ft 434 kts 262°
2026-05-06 10:25 52.04938 5.36860 35866 ft 434 kts 262°
2026-05-06 10:26 52.04291 5.27099 35862 ft 434 kts 262°
2026-05-06 10:26 52.03959 5.17289 35868 ft 435 kts 266°
2026-05-06 10:27 52.03742 5.07460 35869 ft 435 kts 265°
2026-05-06 10:27 52.03470 4.97739 35874 ft 435 kts 265°
2026-05-06 10:28 52.03168 4.87955 35875 ft 435 kts 265°
2026-05-06 10:28 52.02862 4.78359 35882 ft 435 kts 265°
2026-05-06 10:29 52.02541 4.68553 35888 ft 435 kts 265°
2026-05-06 10:29 52.02212 4.58748 35890 ft 435 kts 265°
2026-05-06 10:30 52.01878 4.49018 35887 ft 435 kts 265°
2026-05-06 10:30 52.01535 4.39233 35888 ft 434 kts 265°
2026-05-06 10:31 52.01183 4.29462 35887 ft 434 kts 265°
2026-05-06 10:31 52.00823 4.19686 35882 ft 433 kts 265°
2026-05-06 10:32 52.00456 4.09935 35884 ft 433 kts 265°
2026-05-06 10:32 52.00083 4.00247 35890 ft 433 kts 265°
2026-05-06 10:33 51.99699 3.90489 35895 ft 433 kts 265°
2026-05-06 10:33 51.99309 3.80778 35900 ft 433 kts 264°
2026-05-06 10:34 51.98910 3.71036 35898 ft 432 kts 264°
2026-05-06 10:34 51.98503 3.61295 35897 ft 432 kts 264°
2026-05-06 10:35 51.98091 3.51630 35905 ft 432 kts 264°
2026-05-06 10:35 51.97667 3.41895 35750 ft 433 kts 264°
2026-05-06 10:36 51.97452 3.37022 35490 ft 432 kts 264°
2026-05-06 10:36 51.97236 3.32155 34887 ft 435 kts 264°
2026-05-06 10:36 51.97015 3.27256 34152 ft 437 kts 264°
2026-05-06 10:36 51.96792 3.22319 33269 ft 440 kts 264°
2026-05-06 10:37 51.96563 3.17384 32580 ft 437 kts 263°
2026-05-06 10:37 51.96230 3.12489 31830 ft 436 kts 262°
2026-05-06 10:37 51.95912 3.07580 31020 ft 436 kts 262°
2026-05-06 10:37 51.95606 3.02698 30415 ft 433 kts 262°
2026-05-06 10:38 51.95301 2.97872 29864 ft 427 kts 262°
2026-05-06 10:38 51.94998 2.93168 29286 ft 422 kts 262°
2026-05-06 10:38 51.94691 2.88488 28713 ft 416 kts 262°
2026-05-06 10:38 51.94384 2.83852 28160 ft 411 kts 262°
2026-05-06 10:39 51.94078 2.79282 27609 ft 406 kts 262°
2026-05-06 10:39 51.93773 2.74758 27056 ft 402 kts 262°
2026-05-06 10:39 51.93468 2.70270 26527 ft 398 kts 262°
2026-05-06 10:39 51.93166 2.65828 25933 ft 395 kts 262°
2026-05-06 10:40 51.92864 2.61424 25441 ft 391 kts 262°
2026-05-06 10:40 51.92563 2.57054 24885 ft 388 kts 262°
2026-05-06 10:40 51.92264 2.52732 24362 ft 385 kts 262°
2026-05-06 10:40 51.91964 2.48422 23826 ft 383 kts 262°
2026-05-06 10:41 51.91666 2.44156 23297 ft 380 kts 262°
2026-05-06 10:41 51.91369 2.39927 22723 ft 377 kts 262°
2026-05-06 10:41 51.91075 2.35752 22268 ft 370 kts 262°
2026-05-06 10:41 51.90807 2.31635 21981 ft 366 kts 265°
2026-05-06 10:42 51.90710 2.27459 21852 ft 383 kts 266°
2026-05-06 10:42 51.90614 2.23117 21730 ft 389 kts 266°
2026-05-06 10:42 51.90515 2.18721 21357 ft 392 kts 266°
2026-05-06 10:42 51.90413 2.14329 20904 ft 390 kts 266°
2026-05-06 10:43 51.90308 2.09954 20366 ft 386 kts 266°
2026-05-06 10:43 51.90203 2.05640 19856 ft 381 kts 266°
2026-05-06 10:43 51.90097 2.01370 19363 ft 377 kts 266°
2026-05-06 10:44 51.89905 1.92998 18961 ft 375 kts 269°
2026-05-06 10:44 51.90082 1.88761 18955 ft 378 kts 276°
2026-05-06 10:44 51.90420 1.84546 18956 ft 377 kts 276°
2026-05-06 10:44 51.90762 1.80338 18955 ft 376 kts 276°
2026-05-06 10:45 51.91105 1.76120 18955 ft 378 kts 276°
2026-05-06 10:45 51.91444 1.71920 18956 ft 377 kts 276°
2026-05-06 10:45 51.91785 1.67706 18956 ft 377 kts 276°
2026-05-06 10:45 51.92119 1.63556 18956 ft 376 kts 276°
2026-05-06 10:46 51.92457 1.59352 18954 ft 377 kts 276°
2026-05-06 10:46 51.92795 1.55137 18957 ft 377 kts 276°
2026-05-06 10:46 51.93130 1.50939 18954 ft 377 kts 276°
2026-05-06 10:46 51.93465 1.46723 18954 ft 377 kts 276°
2026-05-06 10:47 51.93800 1.42507 18954 ft 376 kts 276°
2026-05-06 10:47 51.94134 1.38288 18957 ft 377 kts 276°
2026-05-06 10:47 51.94468 1.34067 18958 ft 377 kts 276°
2026-05-06 10:47 51.94798 1.29855 18959 ft 377 kts 276°
2026-05-06 10:48 51.95129 1.25645 18962 ft 377 kts 276°
2026-05-06 10:48 51.95455 1.21477 18959 ft 377 kts 276°
2026-05-06 10:48 51.95784 1.17259 18964 ft 377 kts 276°
2026-05-06 10:48 51.96112 1.13039 18897 ft 378 kts 276°
2026-05-06 10:49 51.96438 1.08811 18672 ft 376 kts 276°
2026-05-06 10:49 51.96759 1.04611 18433 ft 374 kts 276°
2026-05-06 10:49 51.97070 1.00444 18191 ft 373 kts 276°
2026-05-06 10:49 51.97276 0.97671 18012 ft 373 kts 276°
2026-05-06 10:50 51.97688 0.92095 17652 ft 370 kts 276°
2026-05-06 10:50 51.97969 0.88236 17399 ft 368 kts 276°
2026-05-06 10:50 51.98268 0.84119 17132 ft 367 kts 276°
2026-05-06 10:50 51.98565 0.80017 16761 ft 363 kts 276°
2026-05-06 10:51 51.98853 0.75983 16376 ft 356 kts 276°
2026-05-06 10:51 51.99133 0.72031 15997 ft 349 kts 276°
2026-05-06 10:51 51.99403 0.68156 15640 ft 342 kts 276°
2026-05-06 10:51 51.99663 0.64368 15319 ft 335 kts 275°
2026-05-06 10:52 51.99811 0.60624 14990 ft 328 kts 271°
2026-05-06 10:52 51.99863 0.56960 14685 ft 322 kts 271°
2026-05-06 10:52 51.99906 0.53362 14364 ft 316 kts 271°
2026-05-06 10:52 51.99946 0.49819 14058 ft 311 kts 271°
2026-05-06 10:53 51.99981 0.46379 13742 ft 306 kts 271°
2026-05-06 10:53 52.00014 0.42942 13368 ft 302 kts 271°
2026-05-06 10:53 52.00043 0.39552 12996 ft 299 kts 271°
2026-05-06 10:53 52.00066 0.36192 12644 ft 298 kts 271°
2026-05-06 10:54 52.00088 0.32817 12310 ft 298 kts 271°
2026-05-06 10:54 52.00110 0.29475 11975 ft 295 kts 271°
2026-05-06 10:54 52.00129 0.26150 11644 ft 293 kts 271°
2026-05-06 10:54 52.00145 0.22841 11319 ft 293 kts 271°
2026-05-06 10:55 52.00158 0.19791 11019 ft 292 kts 271°
2026-05-06 10:55 52.00170 0.16597 10707 ft 290 kts 271°
2026-05-06 10:55 52.00180 0.13411 10394 ft 289 kts 271°
2026-05-06 10:55 52.00188 0.10154 10085 ft 288 kts 271°
2026-05-06 10:56 52.00191 0.06956 9764 ft 286 kts 271°
2026-05-06 10:56 52.00193 0.03731 9419 ft 286 kts 271°
2026-05-06 10:56 52.00195 0.00512 9098 ft 283 kts 271°
2026-05-06 10:56 52.00193 -0.02680 8782 ft 284 kts 271°
2026-05-06 10:57 52.00190 -0.05871 8472 ft 282 kts 271°
2026-05-06 10:57 52.00114 -0.09044 8176 ft 281 kts 266°
2026-05-06 10:57 51.99945 -0.12200 7995 ft 281 kts 266°
2026-05-06 10:57 51.99771 -0.15361 7820 ft 280 kts 266°
2026-05-06 10:58 51.99598 -0.18510 7636 ft 280 kts 266°
2026-05-06 10:58 51.99390 -0.21639 7466 ft 276 kts 262°
2026-05-06 10:58 51.98974 -0.24629 7290 ft 268 kts 256°
2026-05-06 10:58 51.98497 -0.27489 7138 ft 258 kts 256°
2026-05-06 10:59 51.98030 -0.30261 6987 ft 255 kts 256°
2026-05-06 10:59 51.97565 -0.33031 6847 ft 258 kts 256°
2026-05-06 10:59 51.97092 -0.35832 6699 ft 256 kts 256°
2026-05-06 10:59 51.96623 -0.38620 6551 ft 256 kts 256°
2026-05-06 11:00 51.96157 -0.41371 6400 ft 249 kts 256°
2026-05-06 11:00 51.95704 -0.44023 6237 ft 239 kts 256°
2026-05-06 11:00 51.95258 -0.46647 6082 ft 245 kts 256°
2026-05-06 11:00 51.94809 -0.49281 5923 ft 238 kts 256°
2026-05-06 11:01 51.94372 -0.51812 5747 ft 230 kts 256°
2026-05-06 11:01 51.93942 -0.54294 5465 ft 227 kts 256°
2026-05-06 11:01 51.93519 -0.56740 5188 ft 224 kts 256°
2026-05-06 11:01 51.93100 -0.59162 4933 ft 222 kts 256°
2026-05-06 11:02 51.92679 -0.61567 4644 ft 221 kts 256°
2026-05-06 11:02 51.92257 -0.63950 4354 ft 219 kts 256°
2026-05-06 11:02 51.91736 -0.66260 4055 ft 219 kts 237°
2026-05-06 11:02 51.90614 -0.67851 3823 ft 215 kts 201°
2026-05-06 11:03 51.89196 -0.68100 3701 ft 199 kts 165°
2026-05-06 11:03 51.87965 -0.67251 3526 ft 191 kts 150°
2026-05-06 11:03 51.86755 -0.66247 3344 ft 195 kts 149°
2026-05-06 11:03 51.85684 -0.65012 3124 ft 185 kts 132°
2026-05-06 11:04 51.84810 -0.63580 3000 ft 175 kts 130°
2026-05-06 11:04 51.84013 -0.62109 3010 ft 167 kts 117°
2026-05-06 11:04 51.83670 -0.60363 3006 ft 162 kts 90°
2026-05-06 11:04 51.83746 -0.58580 2999 ft 158 kts 76°
2026-05-06 11:05 51.83998 -0.56847 2928 ft 158 kts 71°
2026-05-06 11:05 51.84300 -0.55132 2714 ft 157 kts 71°
2026-05-06 11:05 51.84592 -0.53434 2514 ft 157 kts 70°
2026-05-06 11:05 51.84891 -0.51710 2296 ft 162 kts 71°
2026-05-06 11:06 51.85179 -0.50026 2072 ft 149 kts 71°
2026-05-06 11:06 51.85449 -0.48472 1869 ft 135 kts 70°
2026-05-06 11:06 51.85694 -0.47059 1697 ft 128 kts 71°
2026-05-06 11:06 51.85942 -0.45638 1510 ft 136 kts 70°
2026-05-06 11:07 51.86192 -0.44184 1320 ft 133 kts 71°
2026-05-06 11:07 51.86436 -0.42743 1134 ft 130 kts 70°
2026-05-06 11:07 51.86682 -0.41348 939 ft 131 kts 70°
2026-05-06 11:07 51.86923 -0.39896 772 ft 134 kts 71°
2026-05-06 11:08 51.87176 -0.38474 585 ft 129 kts 69°
2026-05-06 11:08 51.87418 -0.37115 522 ft 116 kts 73°
2026-05-06 11:08 51.87532 -0.36462 522 ft 59 kts 75°
2026-05-06 11:08 51.87611 -0.35988 515 ft 13 kts 72°
2026-05-06 11:09 51.87689 -0.35927 516 ft 16 kts 348°
2026-05-06 11:09 51.87776 -0.36004 516 ft 14 kts 302°
2026-05-06 11:09 51.87769 -0.36161 518 ft 15 kts 255°
2026-05-06 11:09 51.87738 -0.36342 518 ft 18 kts 253°
2026-05-06 11:10 51.87704 -0.36546 520 ft 19 kts 255°
2026-05-06 11:10 51.87666 -0.36759 523 ft 20 kts 253°
2026-05-06 11:10 51.87671 -0.36948 523 ft 18 kts 326°
2026-05-06 11:10 51.87788 -0.37010 515 ft 20 kts 342°
2026-05-06 11:11 51.87915 -0.37077 508 ft 19 kts 342°
2026-05-06 11:11 51.88047 -0.37147 508 ft 21 kts 341°
2026-05-06 11:11 51.88176 -0.37214 515 ft 15 kts 343°
2026-05-06 11:11 51.88230 -0.37264 516 ft 5 kts 284°
2026-05-06 11:12 51.88225 -0.37353 516 ft 10 kts 252°
2026-05-06 11:12 51.88204 -0.37483 516 ft 13 kts 268°
2026-05-06 11:12 51.88195 -0.37622 519 ft 12 kts 243°
2026-05-06 11:12 51.88158 -0.37721 523 ft 10 kts 238°
2026-05-06 11:13 51.88107 -0.37827 523 ft 13 kts 220°
2026-05-06 11:13 51.88025 -0.37930 523 ft 17 kts 218°
2026-05-06 11:13 51.87971 -0.37994 523 ft 4 kts 209°
2026-05-06 11:13 51.87938 -0.38002 523 ft 4 kts 147°
2026-05-06 11:14 51.87929 -0.37954 523 ft 6 kts 105°
2026-05-06 11:14 51.87926 -0.37926 523 ft 0 kts 100°